ASGARDIA 1 (43049 NORAD) Tracking and Keplerian Element Data

This shows tracking and keplerian element data for the satellite.

Feedback or suggestion? Click here.




ElementValue
Catalog43049
NameASGARDIA 1
Epoch Orbit3426
Epoch Day198.61862991
Epoch Year2018
RAAN253.005
Inclination51.6385
Eccentricity0.0002969
Argument of Perigee42.2794
Mean Anonmoly317.8419
Mean Motion15.39159851
Decay Rate2.39E-05
L11 43049U 17071N 18198.61862991 .00002390 00000-0 70689-4 0 9993
L22 43049 51.6385 253.0050 0002969 42.2794 317.8419 15.39159851 34264

Live tracking and technical data element details for ASGARDIA 1 (NORAD 43049). ASGARDIA 1 can be tracked NOW for your location showing map with azimuth and elevation plus other details from your city location.

Track the satellite on the map from your city or location and see movement details for azimuth, elevation, latitude, longitude, range, height, and movement on the map or in text.







IsCatalogInMostPopularTable: catalog: 43049, numindb: 94
Update: records affected: 1



GetName: 43049 ASGARDIA 1

Hit Count: updated at: Thu, 19 Jul 2018 04:02:37 GMT